Regional Weather Roundup
Issued by NWS

Home | Current Version | Previous Version | Text Only | Print | Product List | Glossary On
Versions: 1 2 3 4 5 6 7 8 9 10 11 12 13 14 15 16 17 18 19 20 21 22 23 24 25 26 27 28 29 30 31 32 33 34 35 36 37 38 39 40 41 42 43 44 45 46 47 48 49 50
000
ASUS43 KLOT 190608
RWRIL

ILLINOIS REGIONAL WEATHER ROUNDUP
NATIONAL WEATHER SERVICE CHICAGO/ROMEOVILLE IL
100 AM CDT SAT AUG 19 2017

NOTE: "FAIR" INDICATES FEW OR NO CLOUDS BELOW 12,000 FEET WITH NO
SIGNIFICANT WEATHER AND/OR OBSTRUCTIONS TO VISIBILITY.

* THESE STATIONS ARE NOT UNDER NWS QUALITY CONTROL. THEY ALSO MAY NOT
  REPORT WEATHER SUCH AS PRECIPITATION OR FOG.

ILZ001-002-007-009-015-016-024-190700-
NORTHWEST ILLINOIS

CITY           SKY/WX    TMP DP  RH WIND       PRES   REMARKS
MOLINE         MOCLDY    66  61  84 E5        29.91S
6HR MIN TEMP:  66; 6HR MAX TEMP:  80;

STERLING*      CLEAR     66  61  84 N5        29.93R
SAVANNA*       CLEAR     60  59  94 NE3       29.93R
$$

ILZ003-004-008-010-011-017-018-190700-
NORTH CENTRAL ILLINOIS

CITY           SKY/WX    TMP DP  RH WIND       PRES   REMARKS
ROCKFORD       PTCLDY    63  60  90 N8        29.93S
6HR MIN TEMP:  63; 6HR MAX TEMP:  76;

FREEPORT*      CLEAR     58  57  96 CALM      29.95R
ROCHELLE*      CLEAR     63  60  91 NW3       29.92S
DE KALB*       MOCLDY    64  60  86 N7        29.92S
PERU*          CLOUDY    68  62  80 N6        29.91S
$$

ILZ005-006-012>014-019>023-190700-
NORTHEAST ILLINOIS

CITY           SKY/WX    TMP DP  RH WIND       PRES   REMARKS
CHICAGO-OHARE  MOCLDY    70  59  68 NW8       29.89S
6HR MIN TEMP:  70; 6HR MAX TEMP:  79;

CHICAGO-MIDWAY CLOUDY    73  60  63 N10       29.88F
6HR MIN TEMP:  73; 6HR MAX TEMP:  80;

AURORA         MOCLDY    66  63  90 NW3       29.91S
6HR MIN TEMP:  66; 6HR MAX TEMP:  75;

LANSING*       CLOUDY    69  61  76 W3        29.89S
JOLIET*        CLOUDY    72  64  75 N5        29.90S
WAUKEGAN       PTCLDY    62  61  96 W3        29.89S
6HR MIN TEMP:  62; 6HR MAX TEMP:  75;

DUPAGE AIRPORT MOCLDY    68  62  81 NW6       29.90R
6HR MIN TEMP:  68; 6HR MAX TEMP:  76;

KANKAKEE*      CLOUDY    68  66  94 CALM      29.90S
WHEELING       MOCLDY    67  62  84 NW7       29.91S
6HR MIN TEMP:  67; 6HR MAX TEMP:  78;

MORRIS*        CLOUDY    68  63  83 N3        29.90R
ROMEOVILLE*    MOCLDY    68  59  74 N5        29.90S
NORTHERLY ISL    N/A     72  57  59 NW9         N/A
$$

LMZ740>746-190700-
SOUTHERN LAKE MICHIGAN

STATION/POSITION SKY/WX   TEMP    WIND        PRES    VSBY  WAVE
                          AIR SEA DIR/SP/G                  HT/PER
                          (F)     (DEG/KT/KT) (MB)    (MI)  (FT/S)
SOUTHERN BUOY              71 71  320/ 12/ 14 1011.3          1/ 4
WILMETTE HARBOR            71 73  320/ 14/ 17   N/A           2/ 3
HARRISON CRIB              73     330/ 16/ 17   N/A
CALUMET HARBOR             73     310/  4/  7 1011.4S
BURNS HARBOR               74     340/ 11/ 16 1012.2S
MICHIGAN CITY              70     190/  3/  4   N/A
MICHIGAN CITY 6N           73 74  330/ 12/ 17   N/A           1/ 4
ST. JOSEPH                 72 74  230/  4/  8 1011.3          1/ 5
$$

ILZ025>027-034>036-040-047-049-050-058-095>099-190700-
WEST-CENTRAL ILLINOIS

CITY           SKY/WX    TMP DP  RH WIND       PRES   REMARKS
QUINCY         CLEAR     69  63  81 SW9       29.90F
GALESBURG*     CLEAR     63  63  99 NE5       29.92S
MACOMB*        CLEAR     65  64  98 N6        29.93R
JACKSONVILLE*  CLEAR     70  64  83 SW6       29.91S
PITTSFIELD*    CLEAR     71  66  84 SW7       29.93S
$$

ILZ028>032-037-038-041>044-048-051>054-059>061-190700-
CENTRAL ILLINOIS

CITY           SKY/WX    TMP DP  RH WIND       PRES   REMARKS
PONTIAC        PTCLDY    67  67  97 CALM      29.91S
DECATUR        MOCLDY    69  65  86 SW7       29.90F
PEORIA         PTCLDY    67  66  97 CALM      29.90R
6HR MIN TEMP:  67; 6HR MAX TEMP:  80; 6HR PCP:  0.01;

LACON*         PTCLDY    68  66  95 CALM      29.90R
LINCOLN*       CLOUDY    68  68  99 CALM      29.90S
SPRINGFIELD    MOCLDY    70  68  93 SW3       29.91R
6HR MIN TEMP:  69; 6HR MAX TEMP:  83; 6HR PCP: TRACE;

TAYLORVILLE    CLOUDY    67  66  96 CALM      29.92S
6HR MIN TEMP:  67; 6HR MAX TEMP:  78;

$$

ILZ033-039-045-046-055>057-062-063-190700-
EAST-CENTRAL ILLINOIS

CITY           SKY/WX    TMP DP  RH WIND       PRES   REMARKS
CHAMPAIGN      MOCLDY    67  63  87 CALM      29.91S
RANTOUL*       CLOUDY    68  65  90 W3        29.90F
MATTOON        CLOUDY    72  67  84 SW5       29.91F
PARIS*         CLOUDY    67  65  96 CALM      29.92F
$$

ILZ079-100>102-190700-
SOUTHWEST ILLINOIS

CITY           SKY/WX    TMP DP  RH WIND       PRES   REMARKS
ALTON          CLOUDY    69  68  96 W3        29.93S
BELLEVILLE     MOCLDY    71  68  88 CALM      29.92R
CAHOKIA*       PTCLDY    74  67  78 NW9       29.93R
SPARTA*        PTCLDY    75  67  77 S9        29.93F
$$

ILZ064>066-069>071-074>076-080>082-084>086-088>090-092>094-190700-
SOUTH-CENTRAL ILLINOIS

CITY           SKY/WX    TMP DP  RH WIND       PRES   REMARKS
CARBONDALE     CLEAR     69  68  96 SE7       29.93F
6HR MIN TEMP:  69; 6HR MAX TEMP:  80;

CAIRO*         MOCLDY    73  68  85 SW3       29.97R
EFFINGHAM*     CLOUDY    71  66  84 CALM      29.93F
MARION         MOCLDY    72  70  94 S6        29.95F
MT. VERNON       N/A     73  66  78 SW5       29.92F
CENTRALIA*     CLEAR     72  68  87 S6        29.91F
SALEM*         CLOUDY    74  66  76 S5        29.91F
METROPOLIS*    CLOUDY    75  69  82 SW3       29.97F
$$

ILZ067-068-072-073-078-083-087-091-190700-
SOUTHEAST ILLINOIS

CITY           SKY/WX    TMP DP  RH WIND       PRES   REMARKS
LAWRENCEVILLE  PTCLDY    72  67  84 S6        29.94S
FLORA*         CLOUDY    70  67  90 CALM      29.92F
FAIRFIELD*     CLOUDY    71  68  90 CALM      29.91F
HARRISBURG*    CLOUDY    73  69  87 SW3       29.96S
ROBINSON*      CLOUDY    71  67  87 CALM      29.94F
CARMI*         CLOUDY    70  68  95 CALM      29.94F
$$

ABBREVIATIONS USED IN REMARKS
   TC - TEMPERATURE IN CELSIUS
  WCI - WIND CHILL INDEX
   HX - HEAT INDEX
  VSB - VISIBILITY
$$





USA.gov is the U.S. government's official web portal to all federal, state and local government web resources and services.